Location: Newark
(39.0622°N, 106.5590°E)
Time: 11:28:20
(UTC+00:00)

Courier 1B - Pass Details

Date: 26 January 2020
Orbit: 962 x 1209 km, 28.3° (Epoch: 25 February)

Event Time Altitude Azimuth Distance (km) Brightness Sun altitude
Rises 22:11:00 0° 259° (W) 3,932 - -22.2°
Reaches altitude 10° 22:14:01 10° 250° (WSW) 3,010 - -21.6°
Exits shadow 22:16:54 22° 233° (SW) 2,265 9.0 -21.0°
Maximum altitude 22:20:32 33° 189° (S) 1,851 8.9 -20.3°
Drops below altitude 10° 22:27:17 10° 129° (SE) 3,124 11.0 -19.0°
Sets 22:30:28 0° 120° (ESE) 4,099 12.1 -18.4°
